{"data":{"norad_id":50192,"intl_designator":"2021-125AN","name":"STARLINK-3259","alt_names":[],"object_type":"PAYLOAD","status":"ACTIVE","operator":null,"country":"US","launch_date":"2021-12-18","launch_site_code":"AFWTR","launch_vehicle":null,"mission":null,"orbit_class":"UNKNOWN","rcs_meters":null,"size_class":null,"mass_kg":null,"dimensions":null,"purposes":["comms"],"wikipedia_slug":null,"has_3d_model":false,"image_url":null,"decayed_at":null,"tle_current":{"epoch":"2026-05-24T19:26:07.353312Z","epoch_age_seconds":94690,"freshness":"FRESH","line1":"1 50192U 21125AN  26144.80980733  .00000124  00000+0  25853-4 0  9996","line2":"2 50192  53.2144 257.3995 0001255 110.6897 249.4230 15.08836401248221","mean_motion":15.08836401,"eccentricity":0.0001255,"inclination_deg":53.2144,"raan_deg":257.3995,"arg_perigee_deg":110.6897,"mean_anomaly_deg":249.423,"bstar":2.5853e-5,"rev_number":24822,"period_min":95.437782323228,"perigee_km":538.88619431976,"apogee_km":540.62258505857,"semimajor_km":6917.8913896892,"source":"CELESTRAK","updated_at":"2026-05-25T13:38:16.871297Z"}}}